Omaha Millard, NE

7:09 PM CDT on March 30, 2017 (GMT -0500)
Millard Municipal

Weather History for KMLE - March, 2013

Change the Weather History Date:

Monday, March 4, 2013

  Actual Average (KOFF) Record (KOFF)
Temperature  
Mean Temperature 36 °F -  
Max Temperature 42 °F 37 °F 73 °F (2017)
Min Temperature 31 °F 21 °F 0 °F (2002)
Degree Days  
Heating Degree Days 28    
Moisture  
Dew Point 33 °F    
Average Humidity 91    
Maximum Humidity 100    
Minimum Humidity 76    
Precipitation  
Precipitation 0.00 in - - ()
Sea Level Pressure  
Sea Level Pressure 29.79 in    
Wind  
Wind Speed 8 mph (NE)    
Max Wind Speed 14 mph    
Max Gust Speed 23 mph    
Visibility 10 miles    
Events Snow    
Averages and records for this station are not official NWS values.
T = Trace of Precipitation, MM = Missing Value Source: NWS Daily Summary

Daily Weather History Graph

Daily Weather History Graph

Search for Another Location

Airport or City:

Trip Planner

Search our weather history database for the weather conditions in past years. The results will help you decide how hot, cold, wet, or windy it might be!

Date:

Astronomy

Mar. 04, 2013 Rise Set
Actual Time 6:53 AM CST 6:19 PM CST
Civil Twilight 6:26 AM CST 6:46 PM CST
Nautical Twilight 5:54 AM CST 7:18 PM CST
Astronomical Twilight 5:22 AM CST 7:50 PM CST
Moon 1:06 AM CST (3/4) 10:59 AM CST (3/4)
Length of Visible Light 12h 20m
Length of Day
11h 25m
Waning Gibbous, 52% of the Moon is Illuminated
Mar 4
Waning Gibbous
Mar 4
Last Quarter
Mar 11
New
Mar 19
First Quarter
Mar 27
Full

Hourly Weather History & Observations

Time (CST) Temp. Windchill Dew Point Humidity Pressure Visibility Wind Dir Wind Speed Gust Speed Precip Events Conditions
12:15 AM 32.9 °F 25.3 °F 31.1 °F 93% 29.72 in 10.0 mi ESE 9.2 mph - N/A   Clear
12:35 AM 32.5 °F 23.7 °F 31.1 °F 94% 29.71 in 10.0 mi ESE 11.5 mph - N/A   Clear
12:55 AM 32.4 °F 24.0 °F 30.9 °F 94% 29.70 in 10.0 mi ESE 10.4 mph - N/A   Clear
1:15 AM 32.2 °F 22.7 °F 30.9 °F 95% 29.69 in 10.0 mi ESE 12.7 mph - N/A   Clear
1:35 AM 32.0 °F 23.6 °F 30.9 °F 96% 29.69 in 10.0 mi SE 10.4 mph 16.1 mph N/A   Clear
1:55 AM 32.0 °F 24.8 °F 30.9 °F 96% 29.69 in 10.0 mi ESE 8.1 mph - N/A   Clear
2:15 AM 32.2 °F 24.4 °F 30.7 °F 94% 29.69 in 10.0 mi ESE 9.2 mph - N/A   Clear
2:35 AM 32.0 °F 24.8 °F 30.7 °F 95% 29.69 in 10.0 mi ESE 8.1 mph - N/A   Clear
2:55 AM 32.0 °F 24.8 °F 30.7 °F 95% 29.68 in 10.0 mi SE 8.1 mph - N/A   Clear
3:15 AM 32.0 °F 24.2 °F 30.7 °F 95% 29.66 in 10.0 mi ESE 9.2 mph - N/A   Clear
3:35 AM 32.0 °F 26.4 °F 30.7 °F 95% 29.67 in 10.0 mi ESE 5.8 mph - N/A   Clear
3:55 AM 32.0 °F 25.6 °F 30.7 °F 95% 29.67 in 10.0 mi ESE 6.9 mph - N/A   Clear
4:15 AM 31.8 °F 28.5 °F 30.7 °F 96% 29.67 in 10.0 mi East 3.5 mph - N/A   Clear
4:35 AM 31.8 °F 27.3 °F 30.7 °F 96% 29.68 in 10.0 mi ESE 4.6 mph - N/A   Clear
4:55 AM 31.6 °F 26.0 °F 30.6 °F 96% 29.67 in 10.0 mi ESE 5.8 mph - N/A   Clear
5:15 AM 32.0 °F 27.5 °F 30.7 °F 95% 29.69 in 10.0 mi ESE 4.6 mph - N/A   Clear
5:35 AM 31.6 °F 25.1 °F 30.6 °F 96% 29.68 in 10.0 mi SE 6.9 mph - N/A   Clear
5:55 AM 31.6 °F 27.0 °F 30.6 °F 96% 29.68 in 10.0 mi ESE 4.6 mph - N/A   Clear
6:15 AM 31.5 °F 25.8 °F 30.2 °F 95% 29.68 in 10.0 mi ESE 5.8 mph - N/A   Clear
6:35 AM 31.1 °F 25.4 °F 30.6 °F 98% 29.68 in 10.0 mi ESE 5.8 mph - N/A   Clear
6:55 AM 31.5 °F 26.8 °F 30.7 °F 97% 29.69 in 10.0 mi ESE 4.6 mph - N/A   Clear
7:15 AM 31.1 °F 27.7 °F 30.7 °F 99% 29.69 in 10.0 mi ESE 3.5 mph - N/A   Clear
7:35 AM 32.0 °F 28.7 °F 31.1 °F 96% 29.69 in 10.0 mi ESE 3.5 mph - N/A   Clear
7:55 AM 32.2 °F 27.7 °F 31.6 °F 98% 29.69 in 10.0 mi ESE 4.6 mph - N/A   Clear
8:15 AM 32.9 °F 27.5 °F 31.6 °F 95% 29.70 in 10.0 mi ESE 5.8 mph - N/A   Clear
8:35 AM 34.2 °F 29.0 °F 32.0 °F 92% 29.71 in 10.0 mi ESE 5.8 mph - N/A   Clear
8:55 AM 34.9 °F 29.0 °F 32.0 °F 89% 29.72 in 10.0 mi ESE 6.9 mph - N/A   Clear
9:15 AM 35.8 °F 30.9 °F 32.5 °F 88% 29.72 in 10.0 mi ESE 5.8 mph - N/A   Clear
9:35 AM 36.9 °F 31.4 °F 33.1 °F 86% 29.72 in 10.0 mi ESE 6.9 mph - N/A   Clear
9:55 AM 37.4 °F 32.8 °F 33.6 °F 86% 29.73 in 10.0 mi SE 5.8 mph - N/A   Clear
10:15 AM 37.8 °F - 33.8 °F 86% 29.73 in 10.0 mi Calm Calm - N/A   Clear
10:35 AM 38.5 °F - 34.0 °F 84% 29.73 in 10.0 mi Calm Calm - N/A   Clear
10:55 AM 39.9 °F - 35.1 °F 83% 29.74 in 10.0 mi Calm Calm - N/A   Clear
11:15 AM 39.9 °F - 35.1 °F 83% 29.74 in 10.0 mi Calm Calm - N/A   Clear
11:35 AM 41.7 °F - 35.6 °F 79% 29.76 in 10.0 mi Calm Calm - N/A   Clear
11:55 AM 41.7 °F - 35.1 °F 77% 29.76 in 10.0 mi Calm Calm - N/A   Scattered Clouds
12:15 PM 42.1 °F 38.4 °F 34.9 °F 76% 29.76 in 10.0 mi NW 5.8 mph - N/A   Mostly Cloudy
12:55 PM 41.0 °F 34.3 °F 35.1 °F 79% 29.76 in 10.0 mi NW 11.5 mph 17.3 mph N/A   Overcast
1:15 PM 40.3 °F 33.9 °F 34.7 °F 80% 29.76 in 10.0 mi NW 10.4 mph 17.3 mph N/A   Overcast
1:35 PM 39.0 °F 31.0 °F 33.8 °F 82% 29.76 in 10.0 mi NW 13.8 mph 23.0 mph N/A   Overcast
1:55 PM 38.8 °F 30.8 °F 34.0 °F 83% 29.76 in 10.0 mi NW 13.8 mph - N/A   Overcast
2:15 PM 39.2 °F 32.5 °F 34.2 °F 82% 29.78 in 10.0 mi NNW 10.4 mph 19.6 mph N/A   Overcast
2:35 PM 39.4 °F 32.3 °F 34.7 °F 83% 29.78 in 10.0 mi NNW 11.5 mph 17.3 mph N/A   Overcast
2:55 PM 39.2 °F 34.2 °F 34.7 °F 84% 29.78 in 10.0 mi NNW 6.9 mph - N/A   Mostly Cloudy
3:15 PM 38.7 °F 32.4 °F 34.2 °F 84% 29.77 in 10.0 mi North 9.2 mph - N/A   Overcast
3:35 PM 39.0 °F 32.8 °F 34.7 °F 84% 29.78 in 10.0 mi North 9.2 mph 16.1 mph N/A   Overcast
3:55 PM 39.0 °F 33.4 °F 34.7 °F 84% 29.78 in 10.0 mi NNW 8.1 mph 16.1 mph N/A   Overcast
4:15 PM 38.7 °F 31.8 °F 34.7 °F 86% 29.79 in 10.0 mi NNW 10.4 mph - N/A   Overcast
4:35 PM 38.3 °F 31.9 °F 34.2 °F 85% 29.81 in 10.0 mi North 9.2 mph - N/A   Overcast
4:55 PM 37.9 °F 32.1 °F 34.5 °F 87% 29.82 in 10.0 mi NNW 8.1 mph - N/A   Overcast
5:15 PM 37.8 °F 31.8 °F 34.7 °F 89% 29.85 in 7.0 mi NNW 8.1 mph - N/A   Overcast
5:35 PM 36.9 °F 29.1 °F 34.3 °F 91% 29.87 in 7.0 mi NW 11.5 mph 17.3 mph N/A   Overcast
5:55 PM 36.7 °F 29.9 °F 34.0 °F 90% 29.89 in 10.0 mi NNW 9.2 mph 16.1 mph N/A   Overcast
6:15 PM 36.9 °F 29.1 °F 34.2 °F 90% 29.90 in 10.0 mi NNW 11.5 mph - N/A   Overcast
6:35 PM 36.9 °F 31.4 °F 34.3 °F 91% 29.91 in 10.0 mi North 6.9 mph - N/A   Overcast
6:55 PM 36.7 °F 29.9 °F 34.2 °F 91% 29.95 in 10.0 mi NW 9.2 mph - N/A   Overcast
7:15 PM 36.5 °F 29.7 °F 34.3 °F 92% 29.97 in 10.0 mi NW 9.2 mph 17.3 mph N/A   Overcast
7:35 PM 36.5 °F 29.7 °F 34.5 °F 93% 29.97 in 10.0 mi NNW 9.2 mph - N/A   Overcast
7:55 PM 35.8 °F 29.4 °F 34.2 °F 94% 29.97 in 10.0 mi NNW 8.1 mph - N/A   Overcast
8:35 PM 35.6 °F 29.2 °F 34.2 °F 94% 29.97 in 10.0 mi North 8.1 mph - N/A   Overcast
8:55 PM 35.6 °F 29.9 °F 34.2 °F 94% 29.98 in 10.0 mi NW 6.9 mph - N/A   Overcast
9:15 PM 35.4 °F 27.8 °F 34.7 °F 97% 30.00 in 10.0 mi NNW 10.4 mph - N/A   Overcast
9:35 PM 34.9 °F 29.0 °F 34.7 °F 99% 29.99 in 10.0 mi NNW 6.9 mph - N/A   Overcast
9:55 PM 34.7 °F 28.1 °F 34.7 °F 100% 30.01 in 10.0 mi North 8.1 mph - N/A   Overcast
10:15 PM 34.5 °F 30.4 °F 34.5 °F 100% 30.00 in 7.0 mi North 4.6 mph - N/A Snow Light Snow
10:55 PM 34.0 °F 27.2 °F 34.0 °F 100% 30.02 in 10.0 mi NW 8.1 mph - N/A   Overcast
11:15 PM 34.0 °F 27.2 °F 34.0 °F 100% 30.03 in 10.0 mi NW 8.1 mph - N/A   Overcast
11:35 PM 33.8 °F 29.6 °F 33.8 °F 100% 30.03 in 10.0 mi WNW 4.6 mph - N/A   Overcast
11:55 PM 34.0 °F 25.0 °F 29.5 °F 84% 30.02 in 10.0 mi NW 12.7 mph - N/A   Overcast